368  
ASUS43 KTOP 021908  
RWRKS  
 
WEATHER ROUNDUP FOR KANSAS  
NATIONAL WEATHER SERVICE GOODLAND KS  
100 PM CST FRI DEC 02 2016  
 
NOTE: "FAIR" INDICATES FEW OR NO CLOUDS BELOW 12,000 FEET WITH NO  
SIGNIFICANT WEATHER AND/OR S TO VISIBILITY
.  
 
KSZ001>006-013>018-027>032-041>047-022000-  
NORTHWEST KANSAS  
 
CITY SKY/WX TMP DP RH WIND PRES REMARKS
 
GOODLAND CLOUDY 39 15 37 VRB3 30.22S  
HAYS MOSUNNY 44 20 38 N7 30.26S  
HILL CITY PTSUNNY 43 20 39 N5 30.26F  
RUSSELL MOSUNNY 44 23 43 N6 30.24F  

 
 
KSZ061>065-074>080-084>089-022000-  
SOUTHWEST KANSAS  
 
CITY SKY/WX TMP DP RH WIND PRES REMARKS
 
DODGE CITY MOSUNNY 49 11 21 VRB6 30.22F  
ELKHART N/A 45 11 25 E10 N/A  
GARDEN CITY SUNNY 48 13 24 E6 30.21F  
GREAT BEND MOSUNNY 46 20 35 CALM 30.25F  
LIBERAL MOSUNNY 48 18 29 E8 30.20F  
PRATT MOSUNNY 44 19 36 E8 30.24F  

 
 
KSZ066>073-081>083-090>101-022000-  
SOUTHEAST KANSAS  
 
CITY SKY/WX TMP DP RH WIND PRES REMARKS
 
CHANUTE MOSUNNY 56 23 27 VRB6 30.23F  
COFFEYVILLE MOSUNNY 57 29 34 NE8 30.22F  
HUTCHINSON MOSUNNY 49 24 37 NE5 30.25F  
MEDICINE LODGE N/A 50 22 33 NE10 30.22F  
NEWTON CLOUDY 49 24 37 E6 30.24F  
PARSONS MOSUNNY 56 26 31 VRB6 30.24S  
WICHITA INTL CLOUDY 50 27 40 NE5 30.24S  
WICHITA JABRA CLOUDY 50 24 36 E9 30.24S  
WICHITA MCCONL CLOUDY 51 23 33 E8 30.24S  
WINFIELD PTSUNNY 54 26 34 NE13 30.22F  

 
 
KSZ007>012-019>026-033>040-048>060-102>105-022000-  
NORTHEAST KANSAS  
 
CITY SKY/WX TMP DP RH WIND PRES REMARKS
 
CONCORDIA SUNNY 42 27 55 NE3 30.26F  
EMPORIA CLOUDY 49 23 36 E7 30.25S  
LAWRENCE SUNNY 50 29 44 VRB5 30.27F  
MANHATTAN MOSUNNY 46 26 45 CALM 30.28R  
MARYSVILLE SUNNY 43 30 61 CALM 30.27F  
OLATHE IND SUNNY 49 26 41 CALM 30.26F  
OLATHE EXE SUNNY 49 26 41 VRB5 30.26F  
SALINA CLOUDY 47 26 44 N3 30.28R  
TOPEKA BILLARD SUNNY 50 28 42 CALM 30.28S  
TOPEKA FORBES SUNNY 50 28 42 VRB6 30.27R  

 
 
 
CLICK HERE TO GO TO PREVIOUS BULLETINS.

The Nexlab KS Page Main Text Page